Amateur Radio Satellites - All Passes

Search period start: 20 May 2013 09:14
Search period end: 21 May 2013 09:14
Location: Cincinnati Observatory Center, 39.1389°N, 84.4225°W

Satellite Date Start Highest point End Downlink Frequencies (MHz)
Time Altitude Azimuth
Hamsat 20 May 09:18:16 09:22:20 40° 288° (WNW) 09:26:24 145.90 MHz
HO-68 20 May 09:31:51 09:34:25 12° 89° (E) 09:36:59 435.675 MHz FM
Sapphire 20 May 09:35:30 09:40:44 50° 303° (WNW) 09:46:01 437.095 MHz 1200 baud AX-25 AFSK
SO-67 20 May 10:09:22 10:12:15 23° 289° (WNW) 10:15:08 435.3500 MHz FM
ISS 20 May 10:37:16 10:40:24 35° 31° (NNE) 10:43:32 145.800 FM
SO-50 20 May 10:42:16 10:47:01 59° 304° (NW) 10:51:43 436.795 FM
PCSat 20 May 10:48:57 10:52:01 15° 317° (NW) 10:55:07 145.825 MHz
KITSAT 1 20 May 10:55:59 11:03:16 38° 252° (WSW) 11:10:31 435.175 FM
JAS-1B 20 May 10:57:55 11:02:32 23° 299° (WNW) 11:06:52 435.800 - 435.900 CW/SSB
Oscar 11 20 May 11:08:53 11:13:05 45° 99° (E) 11:17:16 145.825 FM, Beacon 2401.500 USB
OPAL 20 May 11:10:09 11:13:51 21° 96° (E) 11:17:31 ?
HO-68 20 May 11:15:53 11:23:05 80° 105° (ESE) 11:30:16 435.675 MHz FM
JAS-2 20 May 11:24:23 11:31:27 74° 102° (ESE) 11:37:36 435.800 - 435.900 CW/SSB, 435.910 FM
Oscar 10/S400 20 May 12:04:20 13:21:20 13° 282° (WNW) 15:15:55 145.825 - 145.975 CW/USB, Beacon 145.810 USB
ISS 20 May 12:14:12 12:17:01 25° 227° (SW) 12:19:50 145.800 FM
UOSAT-12 20 May 12:20:43 12:24:35 29° 113° (ESE) 12:28:29 437.025 FM, 437.400 FM
Oscar 11 20 May 12:46:17 12:48:56 16° 295° (WNW) 12:51:35 145.825 FM, Beacon 2401.500 USB
OPAL 20 May 12:48:12 12:52:55 43° 292° (WNW) 12:57:35 ?
MaSat-1 20 May 12:50:11 12:53:31 54° 62° (ENE) 12:56:14 437.345 MHz
HO-68 20 May 13:05:07 13:09:58 20° 303° (WNW) 13:14:48 435.675 MHz FM
JAS-2 20 May 13:10:48 13:15:33 20° 302° (WNW) 13:19:58 435.800 - 435.900 CW/SSB, 435.910 FM
Uribyol 2 20 May 13:27:58 13:30:56 16° 62° (ENE) 13:33:55 436.500 FM
Oscar 19 20 May 13:35:37 13:39:24 21° 65° (ENE) 13:43:13 437.125 CW, 437.150 USB
PANSAT 20 May 14:00:36 14:02:33 13° 169° (S) 14:04:31 not established
UOSAT-12 20 May 14:00:40 14:04:40 30° 310° (NW) 14:08:43 437.025 FM, 437.400 FM
Oscar 16 20 May 14:12:57 14:17:59 54° 72° (ENE) 14:23:04 437.025 USB, Beacon 2401.1428
AO-27 20 May 14:16:03 14:20:53 42° 70° (ENE) 14:25:46 436.795 MHz FM
ITAMSAT 1 20 May 14:23:14 14:28:11 48° 71° (ENE) 14:33:10 435.822 SSB
Saudisat 1A 20 May 14:58:30 15:01:39 18° 44° (NE) 15:04:45 436.775 MHz
Uribyol 2 20 May 15:04:44 15:09:51 65° 258° (WSW) 15:15:02 436.500 FM
Oscar 19 20 May 15:13:25 15:18:24 47° 261° (W) 15:23:26 437.125 CW, 437.150 USB
AO-7 20 May 15:27:44 15:31:22 14° 47° (NE) 15:35:00 29.400 - 29.500 MHz
Uosat F 20 May 15:28:26 15:32:44 30° 68° (ENE) 15:37:02 435.120 FM
AO-Echo 20 May 15:37:16 15:42:11 83° 76° (ENE) 15:46:59 ?
PANSAT 20 May 15:39:42 15:42:15 17° 182° (S) 15:44:48 not established
TMSAT-1 20 May 15:46:05 15:50:15 24° 66° (ENE) 15:54:25 436.925 FM
Oscar 16 20 May 15:54:21 15:57:40 17° 268° (W) 16:01:00 437.025 USB, Beacon 2401.1428
AO-27 20 May 15:56:39 16:00:34 22° 266° (W) 16:04:32 436.795 MHz FM
ITAMSAT 1 20 May 16:04:21 16:07:56 19° 267° (W) 16:11:34 435.822 SSB
Gurwin Techsat 1B 20 May 16:05:09 16:10:18 54° 72° (ENE) 16:15:28 435.225 FM
PCSat 20 May 16:11:47 16:12:20 10° 38° (NE) 16:12:53 145.825 MHz
RS-15 20 May 16:31:33 16:41:58 36° 106° (ESE) 16:52:00 29.354 - 29.394 USB, Beacon 29.352 USB
Saudisat 1A 20 May 16:37:16 16:41:44 58° 242° (WSW) 16:46:05 436.775 MHz
Sapphire 20 May 16:42:22 16:45:48 17° 45° (NE) 16:49:12 437.095 MHz 1200 baud AX-25 AFSK
Uosat F 20 May 17:07:07 17:11:28 30° 263° (W) 17:15:50 435.120 FM
AO-7 20 May 17:14:23 17:22:30 63° 67° (ENE) 17:30:41 29.400 - 29.500 MHz
PANSAT 20 May 17:20:39 17:21:55 11° 194° (SSW) 17:23:12 not established
TMSAT-1 20 May 17:24:57 17:29:55 41° 262° (W) 17:34:55 436.925 FM
SO-50 20 May 17:36:43 17:38:50 13° 40° (NE) 17:40:56 436.795 FM
Gurwin Techsat 1B 20 May 17:47:05 17:50:35 18° 268° (W) 17:54:06 435.225 FM
PCSat 20 May 17:51:37 17:56:59 57° 58° (ENE) 18:02:18 145.825 MHz
Sapphire 20 May 18:24:27 18:29:54 81° 244° (WSW) 18:35:18 437.095 MHz 1200 baud AX-25 AFSK
Hamsat 20 May 18:38:25 18:39:36 11° 63° (ENE) 18:40:48 145.90 MHz
RS-15 20 May 18:41:42 18:53:41 67° 306° (NW) 19:05:12 29.354 - 29.394 USB, Beacon 29.352 USB
AO-7 20 May 19:09:02 19:15:45 27° 265° (W) 19:22:33 29.400 - 29.500 MHz
SO-50 20 May 19:15:34 19:20:08 90° 250° (WSW) 19:24:36 436.795 FM
PCSat 20 May 19:36:15 19:39:55 19° 255° (WSW) 19:43:34 145.825 MHz
JAS-1B 20 May 19:47:11 19:55:58 47° 68° (ENE) 20:03:35 435.800 - 435.900 CW/SSB
STRAND 1 20 May 19:56:51 20:01:59 67° 102° (ESE) 20:07:05 ?
Hamsat 20 May 20:10:58 20:15:07 62° 260° (W) 20:19:20 145.90 MHz
SO-67 20 May 20:43:20 20:46:53 77° 258° (WSW) 20:50:29 435.3500 MHz FM
UOSAT-12 20 May 20:51:20 20:54:53 22° 46° (NE) 20:58:26 437.025 FM, 437.400 FM
RS-15 20 May 20:59:48 21:08:49 24° 334° (NNW) 21:17:35 29.354 - 29.394 USB, Beacon 29.352 USB
JAS-2 20 May 21:33:37 21:40:19 34° 64° (ENE) 21:47:10 435.800 - 435.900 CW/SSB, 435.910 FM
JAS-1B 20 May 21:37:39 21:46:24 41° 262° (W) 21:54:10 435.800 - 435.900 CW/SSB
STRAND 1 20 May 21:37:46 21:40:36 15° 298° (WNW) 21:43:26 ?
HO-68 20 May 21:42:57 21:49:50 54° 68° (ENE) 21:56:44 435.675 MHz FM
Oscar 11 20 May 22:03:26 22:07:14 31° 70° (ENE) 22:11:04 145.825 FM, Beacon 2401.500 USB
OPAL 20 May 22:23:35 22:28:16 35° 67° (ENE) 22:32:55 ?
UOSAT-12 20 May 22:30:53 22:35:17 46° 244° (WSW) 22:39:40 437.025 FM, 437.400 FM
JAS-2 20 May 23:17:35 23:24:56 52° 262° (W) 23:32:36 435.800 - 435.900 CW/SSB, 435.910 FM
RS-15 20 May 23:19:47 23:27:08 19° 10° (N) 23:34:17 29.354 - 29.394 USB, Beacon 29.352 USB
KITSAT 1 20 May 23:27:38 23:34:50 38° 108° (ESE) 23:42:06 435.175 FM
HO-68 20 May 23:31:57 23:37:48 27° 265° (W) 23:43:42 435.675 MHz FM
Oscar 11 20 May 23:40:14 23:43:30 21° 266° (W) 23:46:47 145.825 FM, Beacon 2401.500 USB
OPAL 21 May 00:02:45 00:07:09 28° 262° (W) 00:11:33 ?
AO-40 21 May 01:05:58 04:11:47 24° 128° (SE) 05:46:03 Beacon 2401.320
KITSAT 1 21 May 01:22:17 01:30:01 49° 307° (NW) 01:37:50 435.175 FM
RS-15 21 May 01:33:23 01:43:49 42° 43° (NE) 01:53:56 29.354 - 29.394 USB, Beacon 29.352 USB
MaSat-1 21 May 01:39:34 01:43:57 17° 103° (ESE) 01:47:59 437.345 MHz
Oscar 16 21 May 02:26:45 02:30:38 21° 94° (E) 02:34:29 437.025 USB, Beacon 2401.1428
AO-27 21 May 02:31:22 02:34:40 17° 92° (E) 02:37:58 436.795 MHz FM
ITAMSAT 1 21 May 02:38:14 02:41:55 19° 93° (E) 02:45:35 435.822 SSB
MaSat-1 21 May 03:18:30 03:25:47 83° 294° (WNW) 03:31:49 437.345 MHz
Uribyol 2 21 May 03:18:44 03:23:49 50° 100° (E) 03:28:52 436.500 FM
ISS 21 May 03:19:37 03:22:01 19° 131° (SE) 03:24:27 145.800 FM
KITSAT 1 21 May 03:23:39 03:27:42 14° 332° (NNW) 03:31:46 435.175 FM
Oscar 19 21 May 03:26:03 03:31:14 68° 102° (ESE) 03:36:20 437.125 CW, 437.150 USB
RS-15 21 May 03:45:53 03:56:37 60° 247° (WSW) 04:07:10 29.354 - 29.394 USB, Beacon 29.352 USB
AO-Echo 21 May 03:46:01 03:50:05 28° 96° (E) 03:54:12 ?
Oscar 16 21 May 04:05:17 04:10:11 44° 289° (WNW) 04:15:02 437.025 USB, Beacon 2401.1428
AO-27 21 May 04:09:25 04:14:31 56° 288° (WNW) 04:19:36 436.795 MHz FM
ITAMSAT 1 21 May 04:16:39 04:21:40 49° 289° (WNW) 04:26:40 435.822 SSB
Gurwin Techsat 1B 21 May 04:23:11 04:27:25 24° 94° (E) 04:31:38 435.225 FM
ISS 21 May 04:55:20 04:58:31 43° 327° (NNW) 05:01:44 145.800 FM
Uribyol 2 21 May 04:59:11 05:02:55 20° 296° (WNW) 05:06:38 436.500 FM
MaSat-1 21 May 05:04:34 05:08:30 16° 309° (NW) 05:12:03 437.345 MHz
Oscar 19 21 May 05:07:11 05:09:59 15° 298° (WNW) 05:12:46 437.125 CW, 437.150 USB
Uosat F 21 May 05:15:11 05:20:15 88° 284° (WNW) 05:25:17 435.120 FM
AO-7 21 May 05:18:33 05:24:30 21° 93° (E) 05:30:25 29.400 - 29.500 MHz
AO-Echo 21 May 05:24:47 05:28:49 29° 291° (WNW) 05:32:55 ?
STRAND 1 21 May 05:37:47 05:38:32 10° 59° (ENE) 05:39:16 ?
TMSAT-1 21 May 05:41:35 05:46:55 87° 103° (ESE) 05:52:14 436.925 FM
Gurwin Techsat 1B 21 May 06:02:34 06:07:31 41° 290° (WNW) 06:12:26 435.225 FM
ISS 21 May 06:34:20 06:35:55 13° 346° (NNW) 06:37:30 145.800 FM
Saudisat 1A 21 May 06:43:15 06:47:38 49° 117° (ESE) 06:52:05 436.775 MHz
Uosat F 21 May 06:57:20 06:58:16 11° 301° (WNW) 06:59:11 435.120 FM
AO-7 21 May 07:09:39 07:18:02 78° 290° (WNW) 07:26:22 29.400 - 29.500 MHz
STRAND 1 21 May 07:11:49 07:16:54 86° 76° (ENE) 07:22:02 ?
KITSAT 1 21 May 07:21:53 07:27:22 19° 35° (NE) 07:32:50 435.175 FM
TMSAT-1 21 May 07:24:08 07:26:05 12° 300° (WNW) 07:28:01 436.925 FM
Sapphire 21 May 07:24:42 07:27:38 15° 104° (ESE) 07:30:34 437.095 MHz 1200 baud AX-25 AFSK
Hamsat 21 May 07:59:00 08:02:38 25° 95° (E) 08:06:16 145.90 MHz
ISS 21 May 08:13:14 08:13:51 10° 7° (N) 08:14:29 145.800 FM
Saudisat 1A 21 May 08:24:09 08:27:36 21° 314° (NW) 08:31:05 436.775 MHz
PCSat 21 May 08:32:10 08:37:31 67° 115° (ESE) 08:42:54 145.825 MHz

Developed and maintained by Chris Peat, Heavens-Above GmbH. Please read the updated FAQ before sending e-mail. Imprint. DLR
